Back to catalog

CZ-2C R/B

AliveSSO
NORAD 61873·ROCKET BODY·🇨🇳 China

Launched Nov 9, 2024 from Jiuquan Satellite Launch Center

Loading…

Next Passes (next 24 hours)

TLE

FreshSource: Space-Track

Epoch: Sep 14, 2026, 14:39 UTC

1 61873U 24203E   26257.61069952  .00006324  00000-0  18483-3 0  9998
2 61873  97.2933 320.7159 0071585 279.8956  79.4211 15.33085973102831

Track CZ-2C R/B in real time with AllMySat

Download on the App Store